Tracking 19638 objects as of 20-May-2019
HD Live streaming from Space Station
objects crossing your sky now

FENGYUN 1C DEB


FENGYUN 1C DEB is no longer on orbit


NORAD ID: 31689
Int'l Code: 1999-025CCX
Perigee: N/A
Apogee: N/A
Inclination: N/A
Period: N/A
Semi major axis: N/A
RCS: N/A
Launch date: May 10, 1999
Source: People's Republic of China (PRC)
Launch site: Taiyaun Space Center, China (TSC)
Decay date: 2013-12-29

Note: This is SATELLITE DEBRIS
aabbcc
Your satellite tracking list
Your tracking list is empty




NASA's NSSDC Master Catalog

Two Line Element Set (TLE):
1 31689U 99025CCX 13361.69525961  .01383182  11214-2  20325-2 0  9990
2 31689 098.7231 318.1845 0044387 044.1088 016.2723 16.03251757364225
Source of the keplerian elements: AFSPC